Precipitable_Water
0.63 0.63 0.63 0.62 0.61 0.60 0.60 0.60 0.60 0.60 0.60 0.58 0.57 0.56 0.56 0.55 0.55 0.53 0.52 0.52 0.52 0.51 0.51 0.51 0.50 0.49 0.47 0.47 0.47 0.47 0.47 0.36 0.29 0.26 0.23 0.21 0.22 0.24 0.26 0.24 0.36 0.35 0.36 0.32 0.26 0.21 0.18 0.20 0.18 0.23 0.24 0.27 0.26 0.24 0.29 0.27 0.27 0.22 0.15 0.13 0.10 0.11 0.11 0.14 0.14 0.17 0.21 0.20 0.20 0.21 0.21 0.21 0.21 0.25 0.38 0.56 0.55 0.54 0.62 0.66 0.76 0.86 0.83 0.88 0.99 1.11 1.22 1.28
0.63 0.64 0.64 0.64 0.63 0.61 0.61 0.61 0.61 0.61 0.61 0.59 0.58 0.56 0.55 0.55 0.54 0.53 0.53 0.52 0.51 0.51 0.50 0.50 0.49 0.48 0.48 0.47 0.48 0.48 0.42 0.34 0.25 0.26 0.25 0.29 0.28 0.26 0.27 0.29 0.37 0.40 0.41 0.28 0.23 0.19 0.17 0.18 0.20 0.23 0.25 0.22 0.29 0.23 0.26 0.21 0.25 0.17 0.15 0.13 0.10 0.12 0.14 0.17 0.17 0.19 0.21 0.20 0.21 0.21 0.21 0.21 0.22 0.23 0.25 0.36 0.41 0.46 0.44 0.58 0.65 0.64 0.77 0.90 1.02 1.10 1.14 1.24
0.62 0.64 0.64 0.64 0.64 0.63 0.63 0.63 0.63 0.63 0.62 0.61 0.60 0.59 0.56 0.55 0.53 0.52 0.52 0.52 0.51 0.50 0.49 0.49 0.48 0.47 0.47 0.48 0.47 0.47 0.39 0.29 0.31 0.28 0.34 0.42 0.35 0.28 0.30 0.32 0.36 0.39 0.31 0.24 0.25 0.21 0.18 0.21 0.22 0.23 0.25 0.21 0.24 0.21 0.22 0.21 0.20 0.19 0.16 0.12 0.11 0.15 0.16 0.17 0.19 0.19 0.22 0.23 0.21 0.20 0.20 0.20 0.21 0.21 0.25 0.32 0.34 0.44 0.36 0.40 0.56 0.55 0.59 0.75 0.91 1.05 1.12 1.18
0.59 0.62 0.64 0.65 0.65 0.65 0.64 0.64 0.64 0.64 0.63 0.63 0.61 0.60 0.59 0.57 0.55 0.52 0.52 0.51 0.50 0.49 0.48 0.48 0.47 0.47 0.47 0.47 0.47 0.45 0.36 0.33 0.29 0.36 0.43 0.49 0.42 0.33 0.29 0.32 0.37 0.41 0.38 0.29 0.29 0.24 0.21 0.23 0.23 0.23 0.22 0.19 0.22 0.23 0.19 0.21 0.17 0.19 0.16 0.13 0.13 0.16 0.15 0.16 0.18 0.19 0.21 0.23 0.21 0.21 0.20 0.19 0.20 0.21 0.25 0.26 0.28 0.32 0.38 0.43 0.36 0.48 0.57 0.72 0.90 0.99 1.08 1.11
0.56 0.59 0.62 0.64 0.65 0.66 0.66 0.65 0.65 0.66 0.65 0.64 0.63 0.62 0.60 0.58 0.56 0.54 0.52 0.50 0.50 0.49 0.48 0.47 0.46 0.47 0.46 0.47 0.45 0.42 0.30 0.20 0.34 0.43 0.48 0.52 0.52 0.38 0.30 0.33 0.38 0.41 0.37 0.31 0.26 0.23 0.21 0.22 0.23 0.22 0.21 0.17 0.20 0.20 0.19 0.21 0.21 0.19 0.16 0.17 0.17 0.18 0.15 0.17 0.19 0.20 0.21 0.23 0.21 0.20 0.18 0.18 0.19 0.20 0.22 0.22 0.19 0.21 0.30 0.43 0.54 0.60 0.67 0.71 0.81 0.95 1.04 1.06
0.51 0.54 0.58 0.61 0.63 0.65 0.66 0.66 0.66 0.66 0.66 0.65 0.64 0.62 0.60 0.59 0.57 0.55 0.53 0.51 0.50 0.50 0.47 0.47 0.46 0.45 0.46 0.45 0.43 0.38 0.28 0.13 0.42 0.50 0.59 0.55 0.55 0.46 0.36 0.34 0.39 0.41 0.35 0.27 0.22 0.20 0.20 0.22 0.22 0.18 0.19 0.18 0.18 0.16 0.19 0.21 0.22 0.16 0.18 0.17 0.17 0.17 0.15 0.17 0.18 0.19 0.20 0.21 0.20 0.18 0.19 0.19 0.18 0.17 0.25 0.23 0.21 0.27 0.42 0.57 0.65 0.69 0.76 0.85 0.90 0.92 0.96 1.01
0.50 0.50 0.53 0.57 0.60 0.64 0.65 0.66 0.66 0.67 0.67 0.66 0.64 0.63 0.61 0.60 0.59 0.56 0.53 0.52 0.50 0.49 0.48 0.47 0.46 0.47 0.45 0.45 0.44 0.33 0.25 0.24 0.40 0.51 0.60 0.61 0.57 0.48 0.43 0.40 0.41 0.36 0.32 0.24 0.20 0.19 0.21 0.22 0.22 0.20 0.20 0.19 0.20 0.19 0.20 0.20 0.22 0.18 0.16 0.18 0.17 0.17 0.16 0.18 0.17 0.19 0.19 0.19 0.19 0.20 0.20 0.17 0.17 0.16 0.26 0.30 0.41 0.44 0.52 0.62 0.70 0.78 0.85 0.90 0.84 0.91 0.92 0.98
0.49 0.49 0.49 0.52 0.55 0.60 0.64 0.65 0.65 0.67 0.68 0.67 0.65 0.63 0.62 0.61 0.60 0.60 0.55 0.52 0.50 0.50 0.50 0.48 0.47 0.46 0.46 0.40 0.28 0.22 0.26 0.23 0.38 0.54 0.55 0.55 0.53 0.47 0.45 0.43 0.37 0.33 0.26 0.21 0.18 0.18 0.23 0.21 0.21 0.25 0.21 0.18 0.19 0.18 0.20 0.19 0.20 0.17 0.15 0.17 0.18 0.18 0.18 0.18 0.18 0.18 0.18 0.19 0.20 0.20 0.18 0.17 0.17 0.17 0.29 0.32 0.47 0.52 0.54 0.66 0.74 0.79 0.83 0.86 0.86 0.88 0.93 0.96
0.47 0.47 0.48 0.48 0.50 0.55 0.60 0.63 0.64 0.66 0.67 0.67 0.65 0.64 0.63 0.61 0.60 0.60 0.59 0.53 0.51 0.50 0.49 0.49 0.45 0.47 0.47 0.38 0.26 0.18 0.17 0.40 0.45 0.52 0.52 0.47 0.45 0.42 0.37 0.31 0.34 0.26 0.21 0.20 0.20 0.21 0.24 0.23 0.24 0.26 0.20 0.18 0.21 0.18 0.20 0.17 0.15 0.17 0.16 0.18 0.18 0.17 0.17 0.17 0.16 0.17 0.17 0.18 0.19 0.17 0.17 0.17 0.17 0.36 0.31 0.48 0.53 0.65 0.65 0.67 0.72 0.78 0.79 0.83 0.87 0.92 0.93 0.95
0.44 0.46 0.46 0.47 0.48 0.50 0.54 0.59 0.63 0.65 0.67 0.67 0.65 0.64 0.63 0.62 0.60 0.59 0.61 0.58 0.52 0.49 0.49 0.48 0.48 0.45 0.38 0.31 0.28 0.13 0.33 0.50 0.54 0.50 0.45 0.42 0.38 0.33 0.29 0.28 0.28 0.24 0.20 0.19 0.21 0.23 0.23 0.27 0.28 0.30 0.27 0.23 0.22 0.18 0.18 0.16 0.15 0.17 0.17 0.17 0.17 0.17 0.18 0.18 0.16 0.16 0.17 0.17 0.18 0.16 0.16 0.16 0.21 0.25 0.28 0.55 0.64 0.65 0.62 0.64 0.74 0.74 0.75 0.82 0.86 0.93 0.99 0.98
0.43 0.44 0.45 0.46 0.47 0.47 0.48 0.53 0.58 0.62 0.64 0.66 0.65 0.64 0.63 0.61 0.60 0.59 0.60 0.61 0.56 0.51 0.48 0.47 0.49 0.43 0.32 0.34 0.18 0.15 0.43 0.48 0.51 0.47 0.40 0.38 0.30 0.24 0.23 0.25 0.25 0.21 0.20 0.20 0.22 0.27 0.31 0.34 0.35 0.33 0.28 0.22 0.21 0.19 0.19 0.18 0.19 0.19 0.19 0.19 0.18 0.18 0.18 0.17 0.16 0.16 0.17 0.16 0.17 0.16 0.15 0.16 0.19 0.22 0.27 0.43 0.65 0.66 0.58 0.65 0.73 0.75 0.75 0.79 0.87 0.92 0.99 1.01
0.43 0.43 0.44 0.44 0.45 0.45 0.46 0.48 0.53 0.57 0.60 0.63 0.64 0.63 0.62 0.61 0.60 0.59 0.59 0.62 0.59 0.54 0.49 0.46 0.49 0.46 0.37 0.28 0.20 0.22 0.44 0.51 0.48 0.43 0.37 0.33 0.23 0.22 0.23 0.24 0.22 0.20 0.19 0.20 0.26 0.30 0.34 0.36 0.34 0.29 0.20 0.25 0.18 0.20 0.19 0.22 0.20 0.20 0.20 0.16 0.16 0.16 0.15 0.16 0.15 0.16 0.16 0.16 0.17 0.17 0.15 0.14 0.14 0.13 0.35 0.50 0.64 0.67 0.63 0.65 0.70 0.73 0.76 0.83 0.89 0.94 0.98 1.01
0.42 0.41 0.42 0.43 0.44 0.45 0.45 0.45 0.48 0.52 0.56 0.59 0.61 0.61 0.61 0.60 0.59 0.59 0.59 0.60 0.63 0.58 0.55 0.52 0.46 0.42 0.31 0.16 0.19 0.31 0.40 0.46 0.43 0.40 0.35 0.31 0.23 0.23 0.24 0.23 0.21 0.20 0.22 0.26 0.29 0.33 0.35 0.36 0.33 0.25 0.28 0.24 0.21 0.17 0.22 0.22 0.21 0.20 0.19 0.17 0.16 0.15 0.14 0.15 0.16 0.16 0.16 0.16 0.17 0.17 0.11 0.12 0.14 0.20 0.48 0.60 0.62 0.68 0.65 0.63 0.69 0.72 0.79 0.84 0.88 0.93 1.00 1.05
0.41 0.41 0.41 0.41 0.42 0.43 0.44 0.44 0.44 0.47 0.51 0.54 0.57 0.57 0.58 0.59 0.59 0.58 0.59 0.61 0.63 0.60 0.58 0.54 0.49 0.40 0.31 0.18 0.27 0.42 0.43 0.44 0.43 0.38 0.31 0.29 0.20 0.18 0.21 0.22 0.22 0.23 0.28 0.29 0.31 0.34 0.34 0.36 0.32 0.29 0.28 0.22 0.19 0.23 0.20 0.20 0.20 0.16 0.18 0.18 0.14 0.13 0.12 0.15 0.15 0.16 0.14 0.17 0.17 0.16 0.11 0.11 0.14 0.26 0.47 0.56 0.60 0.55 0.54 0.62 0.67 0.74 0.80 0.84 0.88 0.93 0.97 1.03
0.42 0.41 0.40 0.40 0.41 0.42 0.43 0.43 0.43 0.44 0.46 0.49 0.52 0.53 0.53 0.54 0.56 0.57 0.60 0.62 0.63 0.60 0.57 0.57 0.51 0.37 0.25 0.22 0.38 0.46 0.53 0.53 0.39 0.37 0.33 0.26 0.22 0.19 0.20 0.23 0.26 0.29 0.31 0.32 0.31 0.33 0.35 0.34 0.30 0.24 0.20 0.22 0.21 0.18 0.17 0.17 0.18 0.18 0.14 0.13 0.15 0.12 0.13 0.15 0.17 0.16 0.13 0.14 0.15 0.14 0.11 0.11 0.15 0.32 0.48 0.58 0.62 0.56 0.51 0.60 0.67 0.73 0.78 0.83 0.88 0.91 0.94 0.97
0.41 0.41 0.40 0.39 0.40 0.42 0.44 0.44 0.44 0.43 0.43 0.44 0.46 0.48 0.50 0.51 0.52 0.55 0.59 0.61 0.64 0.62 0.62 0.50 0.45 0.36 0.24 0.16 0.28 0.54 0.47 0.35 0.35 0.40 0.34 0.28 0.26 0.22 0.26 0.27 0.30 0.31 0.32 0.32 0.35 0.35 0.34 0.32 0.24 0.22 0.20 0.20 0.18 0.17 0.16 0.15 0.16 0.17 0.14 0.13 0.13 0.14 0.16 0.16 0.16 0.17 0.17 0.16 0.15 0.13 0.10 0.13 0.15 0.34 0.49 0.61 0.61 0.59 0.53 0.61 0.69 0.74 0.79 0.84 0.88 0.89 0.91 0.93
0.41 0.41 0.40 0.39 0.39 0.41 0.43 0.44 0.44 0.44 0.43 0.42 0.42 0.44 0.47 0.48 0.50 0.53 0.58 0.61 0.60 0.64 0.56 0.41 0.45 0.41 0.17 0.39 0.51 0.36 0.37 0.40 0.41 0.38 0.33 0.30 0.28 0.26 0.26 0.26 0.26 0.28 0.31 0.32 0.33 0.31 0.29 0.23 0.23 0.20 0.21 0.17 0.18 0.17 0.13 0.13 0.13 0.14 0.17 0.14 0.16 0.18 0.20 0.17 0.22 0.22 0.21 0.19 0.16 0.16 0.14 0.14 0.17 0.34 0.52 0.62 0.63 0.59 0.57 0.61 0.69 0.77 0.80 0.82 0.85 0.89 0.89 0.90
0.40 0.40 0.40 0.39 0.39 0.40 0.43 0.44 0.44 0.43 0.43 0.42 0.42 0.43 0.45 0.52 0.60 0.66 0.71 0.72 0.69 0.63 0.58 0.61 0.52 0.30 0.18 0.33 0.28 0.35 0.42 0.39 0.37 0.34 0.31 0.30 0.30 0.27 0.26 0.24 0.25 0.27 0.26 0.25 0.26 0.22 0.23 0.19 0.21 0.16 0.17 0.16 0.16 0.15 0.12 0.11 0.13 0.13 0.15 0.16 0.18 0.22 0.22 0.21 0.19 0.22 0.20 0.20 0.18 0.18 0.16 0.16 0.19 0.33 0.46 0.57 0.68 0.63 0.59 0.63 0.68 0.74 0.77 0.81 0.81 0.82 0.85 0.86
0.39 0.39 0.39 0.39 0.38 0.39 0.41 0.43 0.43 0.44 0.43 0.43 0.49 0.55 0.63 0.69 0.74 0.81 0.72 0.66 0.48 0.38 0.25 0.25 0.25 0.12 0.18 0.28 0.38 0.38 0.39 0.42 0.39 0.33 0.28 0.28 0.30 0.30 0.29 0.28 0.25 0.22 0.19 0.18 0.20 0.20 0.21 0.18 0.19 0.15 0.12 0.13 0.14 0.15 0.14 0.16 0.17 0.17 0.18 0.19 0.21 0.20 0.20 0.20 0.22 0.24 0.22 0.20 0.19 0.18 0.16 0.16 0.21 0.32 0.48 0.63 0.69 0.67 0.72 0.75 0.76 0.76 0.78 0.78 0.77 0.79 0.81 0.82
0.39 0.39 0.38 0.38 0.38 0.38 0.41 0.43 0.45 0.45 0.46 0.47 0.49 0.56 0.59 0.51 0.51 0.49 0.62 0.58 0.42 0.36 0.35 0.35 0.32 0.28 0.32 0.34 0.34 0.40 0.45 0.44 0.31 0.29 0.29 0.30 0.28 0.26 0.25 0.25 0.22 0.21 0.18 0.15 0.18 0.18 0.20 0.14 0.13 0.11 0.12 0.14 0.16 0.17 0.18 0.20 0.21 0.21 0.22 0.22 0.22 0.22 0.21 0.23 0.23 0.26 0.23 0.20 0.19 0.19 0.19 0.19 0.23 0.32 0.49 0.60 0.68 0.69 0.70 0.70 0.70 0.70 0.72 0.74 0.76 0.76 0.78 0.79
0.39 0.38 0.38 0.37 0.38 0.38 0.39 0.43 0.46 0.47 0.52 0.51 0.54 0.45 0.35 0.36 0.29 0.28 0.38 0.39 0.39 0.41 0.38 0.38 0.36 0.29 0.32 0.37 0.40 0.41 0.37 0.37 0.36 0.30 0.29 0.34 0.29 0.25 0.21 0.21 0.19 0.16 0.17 0.19 0.18 0.26 0.21 0.15 0.13 0.14 0.15 0.17 0.19 0.21 0.22 0.23 0.25 0.25 0.24 0.23 0.23 0.23 0.20 0.23 0.23 0.26 0.23 0.19 0.19 0.19 0.18 0.19 0.24 0.37 0.50 0.59 0.63 0.60 0.62 0.64 0.64 0.67 0.71 0.73 0.73 0.75 0.75 0.81
0.40 0.39 0.39 0.38 0.38 0.37 0.38 0.40 0.45 0.47 0.52 0.54 0.51 0.42 0.40 0.41 0.44 0.47 0.39 0.24 0.31 0.37 0.41 0.38 0.41 0.32 0.40 0.41 0.44 0.46 0.43 0.35 0.32 0.32 0.32 0.30 0.26 0.20 0.21 0.20 0.18 0.15 0.19 0.19 0.19 0.17 0.15 0.12 0.14 0.18 0.21 0.23 0.23 0.23 0.25 0.25 0.26 0.27 0.24 0.24 0.22 0.22 0.23 0.24 0.25 0.27 0.25 0.21 0.19 0.20 0.18 0.20 0.26 0.37 0.49 0.52 0.52 0.55 0.60 0.59 0.60 0.62 0.66 0.68 0.71 0.70 0.73 0.77
0.40 0.40 0.40 0.39 0.38 0.37 0.37 0.39 0.42 0.48 0.46 0.46 0.42 0.43 0.41 0.47 0.53 0.55 0.48 0.36 0.26 0.34 0.35 0.37 0.33 0.30 0.35 0.42 0.45 0.48 0.35 0.31 0.28 0.31 0.31 0.28 0.25 0.21 0.21 0.18 0.18 0.19 0.19 0.19 0.15 0.14 0.12 0.15 0.19 0.23 0.24 0.22 0.23 0.25 0.26 0.26 0.27 0.25 0.24 0.22 0.21 0.22 0.21 0.20 0.23 0.26 0.26 0.25 0.21 0.21 0.19 0.23 0.26 0.33 0.40 0.51 0.53 0.52 0.60 0.66 0.67 0.65 0.61 0.61 0.63 0.64 0.65 0.68
0.37 0.38 0.40 0.40 0.40 0.37 0.37 0.37 0.39 0.39 0.39 0.42 0.44 0.45 0.51 0.56 0.55 0.56 0.45 0.30 0.23 0.24 0.28 0.30 0.33 0.30 0.32 0.32 0.42 0.40 0.33 0.34 0.34 0.28 0.35 0.28 0.22 0.24 0.21 0.19 0.19 0.19 0.17 0.20 0.18 0.16 0.17 0.21 0.26 0.25 0.26 0.24 0.22 0.24 0.23 0.22 0.21 0.24 0.24 0.23 0.22 0.21 0.22 0.22 0.22 0.27 0.28 0.29 0.28 0.24 0.21 0.21 0.26 0.29 0.36 0.47 0.56 0.55 0.61 0.66 0.68 0.71 0.73 0.72 0.71 0.69 0.69 0.65
0.36 0.36 0.37 0.39 0.39 0.40 0.34 0.37 0.30 0.33 0.44 0.44 0.46 0.48 0.51 0.55 0.56 0.58 0.43 0.33 0.29 0.25 0.42 0.34 0.35 0.31 0.33 0.47 0.45 0.36 0.36 0.37 0.34 0.36 0.34 0.29 0.24 0.22 0.20 0.23 0.21 0.18 0.20 0.22 0.21 0.20 0.21 0.24 0.27 0.25 0.25 0.25 0.24 0.23 0.23 0.23 0.20 0.22 0.25 0.25 0.24 0.23 0.25 0.25 0.26 0.25 0.23 0.23 0.28 0.26 0.19 0.19 0.25 0.28 0.33 0.41 0.48 0.50 0.60 0.60 0.58 0.63 0.66 0.67 0.65 0.65 0.70 0.75
0.36 0.36 0.36 0.37 0.38 0.37 0.35 0.25 0.36 0.43 0.36 0.36 0.38 0.44 0.53 0.59 0.62 0.56 0.45 0.28 0.17 0.25 0.34 0.20 0.38 0.22 0.40 0.34 0.38 0.36 0.38 0.29 0.36 0.37 0.36 0.32 0.31 0.25 0.23 0.21 0.21 0.19 0.21 0.21 0.21 0.22 0.21 0.24 0.24 0.23 0.22 0.23 0.24 0.23 0.26 0.25 0.21 0.19 0.21 0.27 0.26 0.27 0.27 0.26 0.25 0.23 0.20 0.19 0.26 0.30 0.20 0.20 0.25 0.25 0.27 0.32 0.36 0.42 0.54 0.57 0.59 0.62 0.62 0.62 0.62 0.65 0.67 0.71
0.36 0.36 0.37 0.37 0.37 0.38 0.22 0.19 0.33 0.37 0.30 0.30 0.47 0.49 0.54 0.60 0.66 0.57 0.35 0.24 0.17 0.37 0.28 0.31 0.29 0.29 0.31 0.35 0.36 0.37 0.22 0.23 0.37 0.39 0.36 0.37 0.30 0.32 0.22 0.21 0.22 0.25 0.24 0.24 0.21 0.19 0.23 0.24 0.24 0.25 0.23 0.22 0.22 0.21 0.26 0.25 0.22 0.19 0.25 0.25 0.25 0.25 0.26 0.26 0.25 0.24 0.24 0.28 0.29 0.30 0.26 0.22 0.21 0.25 0.29 0.32 0.34 0.37 0.44 0.50 0.56 0.59 0.60 0.60 0.62 0.65 0.67 0.69
0.36 0.36 0.36 0.36 0.36 0.37 0.27 0.28 0.27 0.26 0.33 0.46 0.53 0.51 0.55 0.57 0.54 0.53 0.32 0.14 0.10 0.41 0.35 0.35 0.32 0.44 0.32 0.38 0.41 0.32 0.29 0.34 0.28 0.34 0.38 0.41 0.36 0.32 0.27 0.24 0.21 0.22 0.24 0.22 0.15 0.21 0.23 0.22 0.23 0.22 0.24 0.22 0.21 0.24 0.28 0.28 0.22 0.21 0.25 0.27 0.25 0.26 0.27 0.28 0.26 0.25 0.26 0.25 0.22 0.26 0.29 0.22 0.22 0.26 0.30 0.31 0.30 0.35 0.37 0.43 0.48 0.54 0.57 0.60 0.62 0.66 0.68 0.70
0.34 0.36 0.37 0.37 0.36 0.35 0.37 0.31 0.28 0.25 0.46 0.54 0.51 0.51 0.53 0.55 0.41 0.30 0.24 0.13 0.36 0.35 0.49 0.37 0.52 0.42 0.36 0.38 0.38 0.36 0.34 0.36 0.29 0.35 0.39 0.42 0.39 0.36 0.27 0.29 0.27 0.26 0.27 0.25 0.19 0.22 0.25 0.24 0.25 0.25 0.24 0.22 0.26 0.29 0.29 0.28 0.22 0.25 0.27 0.28 0.27 0.30 0.30 0.28 0.26 0.25 0.25 0.22 0.20 0.24 0.28 0.22 0.22 0.26 0.27 0.30 0.28 0.29 0.33 0.39 0.45 0.49 0.53 0.57 0.60 0.65 0.69 0.73
0.34 0.34 0.36 0.37 0.34 0.31 0.32 0.37 0.27 0.30 0.41 0.46 0.48 0.51 0.54 0.47 0.35 0.17 0.18 0.11 0.36 0.25 0.36 0.41 0.42 0.38 0.36 0.32 0.32 0.35 0.32 0.35 0.36 0.36 0.38 0.36 0.37 0.37 0.36 0.37 0.31 0.28 0.26 0.28 0.25 0.25 0.26 0.29 0.30 0.26 0.24 0.27 0.29 0.29 0.29 0.27 0.26 0.29 0.27 0.23 0.24 0.26 0.27 0.29 0.28 0.26 0.24 0.20 0.21 0.26 0.29 0.25 0.20 0.24 0.25 0.25 0.27 0.30 0.32 0.37 0.43 0.49 0.55 0.60 0.63 0.64 0.66 0.69
0.34 0.33 0.33 0.36 0.26 0.29 0.28 0.19 0.21 0.42 0.46 0.43 0.47 0.50 0.43 0.36 0.21 0.15 0.10 0.11 0.29 0.33 0.39 0.37 0.35 0.40 0.34 0.30 0.28 0.33 0.32 0.35 0.35 0.35 0.33 0.37 0.35 0.36 0.35 0.32 0.34 0.28 0.27 0.26 0.24 0.25 0.26 0.27 0.27 0.28 0.30 0.30 0.31 0.28 0.29 0.30 0.28 0.25 0.22 0.21 0.21 0.22 0.25 0.25 0.25 0.26 0.20 0.18 0.24 0.28 0.27 0.28 0.19 0.22 0.26 0.29 0.31 0.33 0.33 0.32 0.36 0.43 0.49 0.55 0.61 0.65 0.68 0.71
0.33 0.33 0.33 0.32 0.31 0.35 0.20 0.17 0.31 0.48 0.43 0.39 0.46 0.35 0.27 0.16 0.24 0.13 0.10 0.39 0.20 0.33 0.32 0.35 0.37 0.35 0.34 0.33 0.30 0.30 0.29 0.32 0.34 0.33 0.31 0.32 0.32 0.30 0.30 0.27 0.28 0.22 0.21 0.21 0.20 0.26 0.23 0.24 0.27 0.27 0.32 0.30 0.29 0.25 0.25 0.25 0.24 0.23 0.21 0.22 0.17 0.17 0.18 0.17 0.21 0.18 0.18 0.18 0.25 0.29 0.29 0.24 0.22 0.25 0.28 0.30 0.32 0.33 0.36 0.37 0.39 0.39 0.46 0.53 0.60 0.65 0.71 0.75
0.34 0.33 0.33 0.31 0.31 0.27 0.26 0.24 0.27 0.35 0.34 0.42 0.42 0.31 0.18 0.13 0.10 0.14 0.14 0.22 0.21 0.36 0.37 0.40 0.37 0.35 0.36 0.33 0.30 0.31 0.33 0.29 0.33 0.32 0.33 0.33 0.31 0.31 0.33 0.30 0.31 0.27 0.21 0.24 0.22 0.21 0.21 0.25 0.27 0.27 0.28 0.29 0.28 0.23 0.21 0.20 0.21 0.21 0.19 0.19 0.17 0.14 0.14 0.13 0.18 0.20 0.21 0.24 0.29 0.28 0.30 0.22 0.28 0.29 0.33 0.31 0.34 0.37 0.39 0.43 0.46 0.48 0.46 0.51 0.59 0.68 0.72 0.75
0.34 0.33 0.27 0.26 0.27 0.25 0.24 0.29 0.28 0.32 0.33 0.40 0.38 0.23 0.18 0.11 0.10 0.26 0.16 0.17 0.22 0.37 0.38 0.35 0.35 0.36 0.35 0.32 0.33 0.34 0.30 0.33 0.33 0.31 0.33 0.31 0.30 0.28 0.30 0.32 0.31 0.28 0.25 0.26 0.21 0.21 0.17 0.19 0.23 0.25 0.22 0.28 0.26 0.24 0.23 0.22 0.21 0.21 0.23 0.21 0.19 0.17 0.14 0.12 0.15 0.15 0.17 0.21 0.26 0.31 0.24 0.21 0.21 0.24 0.36 0.40 0.45 0.46 0.48 0.50 0.53 0.54 0.56 0.59 0.66 0.73 0.76 0.76
0.35 0.31 0.29 0.27 0.27 0.26 0.25 0.26 0.27 0.30 0.32 0.39 0.33 0.20 0.11 0.10 0.13 0.15 0.18 0.20 0.22 0.28 0.28 0.34 0.35 0.33 0.33 0.34 0.37 0.37 0.35 0.31 0.35 0.33 0.31 0.28 0.27 0.27 0.27 0.28 0.31 0.30 0.28 0.22 0.24 0.23 0.21 0.21 0.27 0.28 0.28 0.28 0.25 0.27 0.26 0.23 0.21 0.22 0.23 0.23 0.19 0.17 0.20 0.14 0.18 0.17 0.19 0.21 0.21 0.23 0.23 0.29 0.27 0.39 0.45 0.50 0.51 0.50 0.52 0.54 0.56 0.57 0.60 0.63 0.66 0.71 0.76 0.80
0.31 0.26 0.29 0.21 0.21 0.20 0.23 0.25 0.26 0.28 0.27 0.34 0.25 0.17 0.12 0.12 0.10 0.16 0.14 0.23 0.24 0.20 0.22 0.28 0.31 0.30 0.32 0.33 0.37 0.36 0.40 0.32 0.33 0.32 0.31 0.30 0.29 0.27 0.29 0.30 0.30 0.31 0.27 0.22 0.23 0.19 0.21 0.19 0.25 0.27 0.28 0.26 0.26 0.27 0.26 0.24 0.17 0.21 0.20 0.18 0.19 0.24 0.22 0.20 0.21 0.23 0.22 0.19 0.17 0.25 0.24 0.29 0.35 0.39 0.41 0.49 0.49 0.49 0.54 0.58 0.61 0.62 0.64 0.66 0.67 0.71 0.78 0.89
0.27 0.29 0.20 0.24 0.26 0.29 0.26 0.25 0.24 0.23 0.26 0.26 0.20 0.15 0.17 0.16 0.17 0.22 0.27 0.26 0.29 0.26 0.22 0.22 0.26 0.25 0.28 0.32 0.34 0.34 0.35 0.36 0.34 0.32 0.28 0.32 0.29 0.31 0.30 0.30 0.32 0.31 0.31 0.27 0.23 0.25 0.20 0.20 0.25 0.25 0.24 0.28 0.29 0.28 0.25 0.24 0.23 0.21 0.18 0.20 0.27 0.30 0.27 0.21 0.17 0.20 0.18 0.15 0.17 0.21 0.21 0.24 0.25 0.22 0.36 0.38 0.40 0.47 0.51 0.54 0.57 0.60 0.60 0.64 0.66 0.66 0.70 0.77
0.32 0.30 0.27 0.32 0.40 0.40 0.30 0.25 0.24 0.22 0.24 0.21 0.15 0.15 0.25 0.17 0.22 0.19 0.23 0.23 0.21 0.21 0.21 0.23 0.27 0.28 0.25 0.28 0.31 0.33 0.36 0.33 0.33 0.33 0.30 0.31 0.29 0.37 0.32 0.30 0.32 0.31 0.32 0.32 0.25 0.25 0.24 0.19 0.23 0.27 0.26 0.28 0.29 0.26 0.24 0.26 0.25 0.21 0.20 0.27 0.20 0.19 0.17 0.22 0.20 0.16 0.15 0.14 0.16 0.20 0.23 0.25 0.26 0.25 0.30 0.32 0.36 0.41 0.46 0.52 0.53 0.55 0.59 0.58 0.60 0.61 0.66 0.71
0.36 0.31 0.20 0.36 0.46 0.40 0.30 0.29 0.24 0.19 0.21 0.16 0.15 0.13 0.21 0.22 0.26 0.25 0.29 0.30 0.27 0.21 0.20 0.26 0.26 0.28 0.27 0.26 0.30 0.33 0.34 0.30 0.34 0.32 0.29 0.33 0.27 0.37 0.33 0.31 0.29 0.32 0.32 0.32 0.27 0.26 0.26 0.20 0.21 0.27 0.27 0.28 0.27 0.25 0.20 0.23 0.26 0.25 0.23 0.21 0.24 0.21 0.21 0.20 0.19 0.20 0.19 0.16 0.16 0.18 0.22 0.22 0.29 0.29 0.33 0.32 0.36 0.41 0.46 0.49 0.50 0.54 0.58 0.61 0.60 0.61 0.64 0.68
0.29 0.22 0.21 0.47 0.53 0.38 0.33 0.30 0.21 0.20 0.17 0.11 0.13 0.14 0.26 0.18 0.21 0.24 0.27 0.28 0.26 0.23 0.24 0.28 0.31 0.26 0.26 0.26 0.31 0.29 0.34 0.34 0.34 0.34 0.31 0.31 0.30 0.38 0.34 0.34 0.30 0.31 0.32 0.32 0.29 0.30 0.25 0.26 0.19 0.24 0.29 0.28 0.23 0.25 0.23 0.23 0.21 0.21 0.20 0.19 0.20 0.22 0.27 0.23 0.24 0.20 0.18 0.17 0.17 0.17 0.17 0.22 0.29 0.36 0.35 0.36 0.37 0.42 0.44 0.47 0.52 0.55 0.59 0.61 0.64 0.63 0.63 0.65
0.33 0.24 0.32 0.56 0.55 0.42 0.38 0.27 0.18 0.16 0.15 0.20 0.21 0.18 0.19 0.16 0.21 0.23 0.24 0.28 0.30 0.31 0.27 0.30 0.31 0.27 0.27 0.25 0.25 0.31 0.28 0.30 0.33 0.33 0.34 0.32 0.32 0.28 0.36 0.36 0.35 0.30 0.32 0.30 0.29 0.29 0.25 0.25 0.21 0.24 0.23 0.24 0.25 0.28 0.27 0.26 0.25 0.23 0.21 0.20 0.22 0.19 0.18 0.16 0.16 0.23 0.21 0.18 0.17 0.16 0.15 0.23 0.32 0.39 0.38 0.39 0.41 0.45 0.50 0.51 0.53 0.56 0.60 0.62 0.63 0.65 0.65 0.64
0.25 0.16 0.33 0.61 0.59 0.50 0.33 0.17 0.20 0.26 0.21 0.16 0.15 0.17 0.14 0.21 0.19 0.20 0.22 0.26 0.28 0.28 0.33 0.32 0.32 0.29 0.27 0.26 0.25 0.27 0.28 0.28 0.30 0.33 0.36 0.33 0.36 0.33 0.37 0.42 0.40 0.36 0.30 0.27 0.27 0.32 0.30 0.28 0.25 0.23 0.24 0.24 0.26 0.28 0.30 0.29 0.28 0.27 0.25 0.23 0.26 0.25 0.22 0.18 0.15 0.19 0.21 0.21 0.22 0.20 0.17 0.21 0.33 0.36 0.38 0.41 0.44 0.48 0.54 0.57 0.55 0.59 0.62 0.64 0.64 0.67 0.70 0.73
0.24 0.22 0.51 0.63 0.64 0.55 0.34 0.19 0.26 0.21 0.18 0.22 0.27 0.27 0.29 0.29 0.24 0.25 0.22 0.26 0.26 0.29 0.30 0.29 0.30 0.28 0.28 0.27 0.25 0.24 0.28 0.28 0.30 0.30 0.36 0.37 0.39 0.39 0.40 0.41 0.41 0.38 0.35 0.32 0.31 0.32 0.37 0.25 0.23 0.23 0.25 0.27 0.28 0.29 0.29 0.28 0.26 0.25 0.25 0.26 0.25 0.22 0.23 0.21 0.20 0.22 0.20 0.21 0.19 0.19 0.16 0.20 0.31 0.37 0.37 0.37 0.43 0.51 0.57 0.61 0.60 0.62 0.65 0.67 0.67 0.69 0.73 0.76
0.27 0.29 0.43 0.63 0.65 0.61 0.39 0.22 0.20 0.22 0.24 0.33 0.35 0.33 0.38 0.33 0.28 0.25 0.23 0.29 0.26 0.26 0.28 0.29 0.30 0.32 0.29 0.31 0.28 0.25 0.29 0.24 0.31 0.31 0.32 0.39 0.38 0.46 0.43 0.41 0.42 0.38 0.36 0.32 0.29 0.34 0.26 0.27 0.24 0.21 0.20 0.22 0.23 0.26 0.26 0.27 0.25 0.23 0.23 0.24 0.26 0.26 0.26 0.25 0.24 0.26 0.19 0.21 0.20 0.18 0.14 0.19 0.30 0.40 0.42 0.42 0.44 0.46 0.51 0.56 0.59 0.58 0.62 0.64 0.64 0.65 0.68 0.68
0.30 0.37 0.42 0.55 0.64 0.60 0.41 0.40 0.35 0.32 0.31 0.36 0.36 0.31 0.32 0.31 0.30 0.27 0.27 0.28 0.30 0.30 0.29 0.29 0.32 0.33 0.32 0.33 0.30 0.30 0.30 0.27 0.26 0.33 0.35 0.37 0.38 0.45 0.47 0.45 0.42 0.39 0.41 0.43 0.38 0.37 0.29 0.29 0.25 0.20 0.18 0.16 0.16 0.16 0.19 0.22 0.23 0.25 0.25 0.24 0.24 0.23 0.23 0.21 0.18 0.20 0.17 0.21 0.21 0.18 0.19 0.26 0.33 0.41 0.41 0.43 0.45 0.46 0.51 0.53 0.57 0.59 0.58 0.58 0.59 0.60 0.62 0.62
0.25 0.19 0.32 0.41 0.53 0.52 0.50 0.52 0.45 0.39 0.36 0.36 0.32 0.31 0.31 0.27 0.31 0.32 0.31 0.30 0.33 0.32 0.32 0.32 0.33 0.35 0.32 0.30 0.28 0.28 0.28 0.31 0.27 0.29 0.31 0.32 0.35 0.41 0.44 0.45 0.42 0.41 0.43 0.42 0.42 0.37 0.31 0.32 0.29 0.25 0.22 0.21 0.21 0.23 0.26 0.28 0.27 0.22 0.23 0.23 0.23 0.24 0.24 0.23 0.22 0.20 0.18 0.21 0.20 0.22 0.23 0.25 0.30 0.35 0.38 0.42 0.46 0.43 0.46 0.50 0.52 0.53 0.55 0.57 0.58 0.58 0.59 0.58
0.30 0.23 0.28 0.31 0.49 0.49 0.46 0.49 0.42 0.41 0.36 0.40 0.31 0.33 0.30 0.29 0.32 0.31 0.36 0.29 0.33 0.32 0.32 0.32 0.32 0.29 0.30 0.29 0.28 0.27 0.30 0.29 0.30 0.29 0.30 0.31 0.35 0.39 0.42 0.44 0.45 0.45 0.45 0.40 0.42 0.36 0.32 0.28 0.29 0.28 0.26 0.26 0.27 0.26 0.27 0.27 0.25 0.26 0.24 0.23 0.24 0.23 0.22 0.21 0.19 0.19 0.22 0.19 0.17 0.24 0.26 0.23 0.26 0.31 0.35 0.37 0.41 0.45 0.47 0.50 0.52 0.54 0.55 0.54 0.55 0.56 0.57 0.57
0.20 0.29 0.36 0.43 0.39 0.38 0.42 0.42 0.47 0.43 0.43 0.41 0.36 0.36 0.32 0.29 0.29 0.27 0.32 0.35 0.36 0.36 0.30 0.32 0.32 0.32 0.32 0.30 0.29 0.25 0.28 0.27 0.28 0.26 0.30 0.31 0.33 0.36 0.34 0.36 0.37 0.39 0.40 0.39 0.41 0.36 0.32 0.29 0.31 0.28 0.27 0.28 0.29 0.27 0.27 0.26 0.26 0.26 0.25 0.25 0.23 0.23 0.22 0.20 0.21 0.23 0.22 0.18 0.17 0.25 0.27 0.24 0.27 0.30 0.34 0.38 0.41 0.42 0.44 0.47 0.49 0.51 0.51 0.50 0.50 0.50 0.50 0.51
0.28 0.30 0.35 0.45 0.37 0.42 0.46 0.47 0.45 0.43 0.40 0.40 0.37 0.36 0.33 0.30 0.28 0.30 0.31 0.32 0.32 0.33 0.34 0.28 0.29 0.32 0.32 0.33 0.30 0.28 0.29 0.25 0.25 0.30 0.29 0.30 0.31 0.32 0.30 0.31 0.33 0.35 0.33 0.33 0.36 0.38 0.34 0.31 0.32 0.32 0.30 0.30 0.29 0.29 0.29 0.27 0.28 0.27 0.26 0.25 0.24 0.23 0.23 0.22 0.22 0.23 0.22 0.21 0.25 0.29 0.29 0.29 0.31 0.33 0.37 0.41 0.44 0.45 0.46 0.48 0.49 0.47 0.46 0.47 0.46 0.46 0.46 0.48
0.24 0.27 0.26 0.38 0.39 0.40 0.43 0.45 0.45 0.43 0.37 0.40 0.34 0.35 0.34 0.33 0.29 0.31 0.32 0.32 0.29 0.30 0.36 0.30 0.31 0.33 0.32 0.32 0.31 0.28 0.30 0.31 0.31 0.28 0.32 0.31 0.30 0.31 0.29 0.29 0.29 0.32 0.33 0.29 0.30 0.31 0.29 0.27 0.31 0.30 0.28 0.28 0.30 0.30 0.31 0.30 0.29 0.26 0.28 0.28 0.26 0.24 0.22 0.23 0.23 0.24 0.24 0.24 0.28 0.30 0.30 0.30 0.36 0.39 0.39 0.43 0.44 0.45 0.46 0.45 0.46 0.47 0.47 0.46 0.45 0.45 0.45 0.46
0.36 0.37 0.36 0.30 0.28 0.36 0.41 0.43 0.43 0.41 0.37 0.39 0.35 0.35 0.35 0.34 0.32 0.34 0.32 0.34 0.31 0.30 0.32 0.30 0.33 0.33 0.34 0.32 0.31 0.30 0.33 0.33 0.34 0.34 0.35 0.35 0.30 0.34 0.30 0.30 0.32 0.28 0.30 0.30 0.29 0.28 0.28 0.26 0.29 0.26 0.23 0.23 0.27 0.26 0.26 0.26 0.25 0.24 0.24 0.26 0.25 0.23 0.20 0.22 0.20 0.25 0.23 0.22 0.25 0.27 0.26 0.27 0.35 0.38 0.40 0.41 0.43 0.43 0.42 0.43 0.44 0.45 0.47 0.48 0.47 0.46 0.47 0.47
0.41 0.42 0.43 0.35 0.25 0.33 0.33 0.39 0.42 0.41 0.36 0.41 0.40 0.37 0.35 0.35 0.37 0.37 0.30 0.34 0.33 0.33 0.33 0.32 0.33 0.32 0.32 0.31 0.30 0.32 0.34 0.34 0.36 0.38 0.39 0.39 0.40 0.38 0.36 0.35 0.33 0.31 0.29 0.30 0.32 0.28 0.27 0.26 0.23 0.23 0.20 0.20 0.24 0.24 0.23 0.22 0.21 0.19 0.21 0.24 0.25 0.25 0.25 0.26 0.26 0.27 0.26 0.27 0.24 0.21 0.23 0.31 0.35 0.39 0.37 0.38 0.39 0.40 0.39 0.40 0.41 0.43 0.46 0.48 0.49 0.50 0.51 0.52
Wind_Speed
16 16 16 16 16 16 16 16 16 17 17 17 17 17 18 18 18 17 17 18 18 18 17 18 18 18 18 18 18 18 18 19 20 20 20 20 19 20 20 19 19 20 20 19 19 18 18 18 18 18 17 17 17 17 17 17 16 15 14 14 15 14 14 15 14 13 14 13 13 11 9 10 11 11 11 10 9 10 10 11 11 12 12 11 11 10 11 11
16 16 16 16 16 16 16 16 16 16 16 16 17 17 17 17 17 17 17 17 17 17 17 17 17 17 18 18 18 18 18 18 19 20 20 19 18 19 20 20 19 19 19 19 19 19 18 18 18 17 17 17 17 17 17 17 17 16 15 15 15 14 15 16 15 15 15 14 14 13 12 11 12 12 13 12 12 11 10 11 11 9 9 10 11 11 12 12
15 16 16 16 16 16 16 16 16 16 16 16 16 17 17 17 17 17 17 17 17 17 17 17 17 17 17 17 17 17 17 18 18 18 18 17 18 19 19 20 19 19 19 19 19 19 19 19 17 17 17 17 17 17 17 17 17 17 16 16 16 15 15 16 16 17 17 16 14 15 14 13 13 13 13 13 12 13 13 13 12 11 11 12 13 13 13 13
15 15 16 16 16 16 16 16 16 16 16 16 16 16 16 17 17 17 17 17 17 17 17 17 17 17 17 17 17 16 16 16 16 16 15 15 16 17 19 19 19 19 19 19 19 19 19 18 17 17 16 17 17 17 17 17 17 17 17 17 17 15 15 17 18 18 18 17 16 16 16 15 14 12 12 13 13 15 16 17 15 14 13 13 14 13 13 13
15 15 15 16 16 16 16 16 16 16 16 16 16 16 16 16 17 17 17 17 17 16 16 17 16 16 16 16 16 15 15 14 15 16 15 14 15 16 18 18 18 19 19 18 18 19 19 18 17 17 16 17 17 17 18 19 18 17 18 18 17 15 15 17 17 17 18 17 17 16 16 16 15 13 13 14 15 17 18 17 16 15 14 14 14 13 12 13
16 16 16 16 16 16 16 16 16 16 16 17 16 17 17 17 17 16 17 16 16 16 16 16 16 16 16 16 15 14 14 13 15 15 14 14 14 15 16 17 18 18 18 18 18 18 18 18 17 17 17 17 18 18 18 19 18 18 18 18 18 17 16 18 18 17 17 17 17 16 16 16 15 15 14 14 16 17 16 15 14 14 14 13 12 12 12 12
16 16 16 16 16 16 16 16 16 16 17 17 17 17 17 17 16 16 16 16 16 16 16 16 16 15 15 15 14 13 14 15 15 15 14 14 14 15 15 16 17 17 18 18 18 18 18 17 17 17 16 17 18 18 19 18 18 18 17 17 18 18 17 19 20 19 18 18 18 17 16 16 16 16 15 14 15 15 14 13 13 13 12 11 11 11 11 12
16 16 16 16 16 16 16 16 16 16 17 17 17 17 17 17 16 16 16 16 16 16 16 16 15 15 14 14 13 13 14 16 15 14 14 13 14 14 15 15 16 17 17 18 18 18 17 17 18 17 16 17 18 18 18 17 17 18 18 17 17 17 18 20 20 20 19 19 19 17 17 18 17 15 14 14 14 13 12 12 12 11 11 11 10 10 11 11
16 16 16 16 16 16 16 16 16 17 17 17 17 17 16 16 16 16 16 15 15 15 15 15 15 14 14 13 13 13 14 14 13 13 13 13 13 14 15 15 16 17 17 17 17 17 18 18 18 17 17 17 17 17 17 16 17 17 18 17 16 17 18 19 20 20 19 18 17 16 17 19 17 14 14 15 13 12 11 11 11 10 10 10 10 10 11 11
16 16 16 16 16 16 16 16 16 16 16 17 17 16 16 16 16 16 15 15 15 15 15 15 15 14 13 13 12 12 13 12 12 12 12 13 13 13 15 15 16 17 16 16 17 17 17 17 17 17 17 17 17 17 17 17 17 17 17 17 18 18 18 18 18 19 19 18 17 16 16 17 16 14 15 15 12 11 10 10 11 10 11 10 10 10 10 10
15 15 16 16 16 16 16 16 16 16 16 16 16 16 16 16 16 15 15 15 15 15 15 14 14 13 13 12 12 12 12 11 11 11 12 12 12 13 14 15 15 16 16 16 17 17 17 17 16 15 16 16 16 17 17 17 17 17 16 17 18 17 17 16 16 17 17 17 17 16 16 15 14 15 16 15 12 11 10 9 10 10 10 10 10 10 10 10
14 15 15 15 15 15 15 16 16 15 15 15 16 16 16 16 15 15 15 15 15 15 14 14 13 12 12 12 13 13 12 10 10 11 11 11 11 12 13 14 15 15 16 16 16 17 17 16 15 15 16 15 15 15 16 16 16 17 15 15 16 14 14 15 15 16 16 16 16 14 15 15 15 16 15 14 12 11 10 10 11 10 10 10 10 10 9 9
14 14 14 14 14 14 15 15 15 15 15 15 15 15 15 15 15 15 15 15 15 14 14 13 12 12 11 12 13 13 12 11 10 10 10 10 10 11 12 13 13 14 16 16 16 16 16 16 15 16 16 15 15 15 14 14 15 15 14 14 14 13 13 15 14 15 15 16 16 15 16 16 16 17 15 14 13 12 11 11 11 11 11 11 10 10 9 9
13 13 13 13 14 14 14 14 15 15 15 15 15 15 15 15 15 15 15 14 14 14 14 13 12 11 11 12 12 11 12 11 10 11 10 9 9 9 10 12 12 13 15 16 16 16 15 15 15 15 15 15 16 16 14 13 14 14 14 13 13 13 14 15 14 14 15 16 16 15 17 17 16 16 15 14 14 13 11 11 11 12 11 11 10 10 9 9
13 13 13 13 13 13 13 14 14 14 15 15 14 14 14 15 15 15 15 14 14 13 13 12 12 11 11 12 12 10 11 11 11 11 10 10 9 8 10 11 12 13 14 15 15 14 14 14 14 14 15 15 14 14 14 13 12 12 12 12 12 12 13 14 14 14 14 14 14 15 15 15 15 16 15 14 14 13 12 11 12 12 12 11 11 10 9 9
13 13 12 12 13 13 13 13 14 14 14 14 14 14 14 15 15 15 15 14 14 13 12 12 12 11 10 11 10 9 10 11 11 11 11 10 10 9 10 11 11 13 14 14 14 14 13 13 13 13 13 13 12 12 12 12 12 11 11 12 12 11 11 11 11 13 13 12 12 13 14 13 13 14 14 14 14 13 12 12 13 13 13 12 11 10 10 9
13 13 13 13 13 13 13 13 13 14 14 14 14 14 14 14 14 14 14 14 14 13 13 12 11 11 11 11 9 9 10 11 10 10 11 11 10 10 9 10 11 12 13 13 13 13 13 13 12 12 11 11 12 11 11 12 12 12 10 11 11 10 10 10 10 11 11 12 12 13 13 13 12 12 13 13 14 13 12 13 14 14 13 12 11 10 10 10
13 13 13 13 13 13 13 13 13 13 13 13 13 13 13 13 13 13 13 13 13 13 13 12 11 10 11 10 9 8 9 10 10 10 11 10 10 10 10 10 10 11 11 12 13 13 13 12 11 11 11 11 11 11 11 13 13 12 11 10 10 10 10 11 11 11 11 12 12 13 13 13 12 12 13 13 13 14 13 14 14 14 13 12 11 11 10 10
13 13 13 12 12 12 12 13 13 13 12 12 12 12 12 12 12 12 11 12 12 12 13 13 12 11 10 10 10 9 9 9 10 11 11 11 11 11 10 10 10 10 11 11 11 12 11 11 10 12 12 12 12 12 13 13 12 12 11 10 10 10 11 12 11 11 12 12 12 14 13 12 12 12 12 12 13 13 12 13 13 13 12 11 11 11 10 10
14 13 13 12 12 12 12 12 12 12 12 11 11 11 11 10 10 11 11 12 13 14 15 15 15 14 13 12 11 10 9 8 10 11 12 12 11 10 11 10 9 9 10 11 11 10 10 10 11 13 14 14 14 14 13 12 11 11 11 11 11 11 11 12 10 10 11 11 12 13 12 12 12 12 11 11 12 12 12 13 13 13 12 12 11 11 11 11
14 14 13 13 12 12 12 12 12 12 11 11 11 11 11 11 11 11 12 14 15 16 17 17 16 16 15 14 12 10 9 9 9 11 12 13 12 10 11 10 9 9 10 10 10 9 9 10 11 13 13 13 12 12 12 11 11 11 11 11 11 11 11 11 9 8 8 10 10 11 11 12 13 12 10 11 11 12 13 14 14 14 13 12 12 12 11 10
15 15 14 14 13 13 12 12 12 11 11 11 11 11 11 11 11 12 12 13 15 17 18 18 17 18 17 15 14 12 10 10 10 11 13 13 12 11 11 10 10 10 9 9 9 9 8 10 12 12 11 11 10 10 11 12 12 11 11 11 11 11 10 10 8 7 7 8 9 11 11 11 12 12 12 12 12 13 14 16 16 16 14 14 14 13 12 10
16 15 15 14 14 13 13 13 12 12 11 11 11 11 11 11 11 12 12 12 14 15 16 17 17 18 18 16 15 13 12 11 11 12 13 13 12 12 11 10 10 10 9 9 10 9 9 10 11 10 9 10 10 10 10 11 11 11 12 12 12 11 9 9 8 6 6 7 8 9 10 10 10 10 12 13 12 12 15 16 16 16 15 15 15 14 12 11
17 16 15 15 15 14 14 14 12 12 11 12 12 11 11 11 11 11 12 12 13 13 14 15 16 18 18 16 15 14 13 12 12 12 13 14 12 12 12 11 10 10 10 10 10 11 11 11 10 8 8 10 11 10 11 11 11 11 13 13 12 12 11 11 10 7 7 7 7 7 7 9 8 8 11 13 11 12 14 15 14 15 15 14 14 13 12 11
17 17 16 16 15 15 15 13 11 11 12 12 12 12 11 11 12 11 11 11 12 13 13 13 14 16 18 16 14 14 12 13 14 13 14 15 13 11 11 12 10 11 12 11 10 11 12 10 9 9 10 10 11 11 11 12 11 11 13 14 13 13 12 11 9 8 7 7 8 8 7 9 8 8 10 11 11 12 14 15 15 15 15 14 14 13 12 11
18 18 17 17 16 16 14 12 11 12 12 12 12 12 11 11 11 10 10 10 11 12 11 12 12 14 17 16 15 13 12 13 14 15 14 15 14 12 11 11 10 11 12 11 11 11 11 10 9 11 12 11 11 12 12 12 10 11 12 13 12 12 12 10 8 8 9 9 9 8 8 9 8 7 9 10 12 13 14 15 15 15 16 16 15 14 13 12
18 18 18 17 17 16 14 12 12 13 12 12 12 12 12 11 10 9 9 9 10 11 10 11 11 13 15 16 15 13 11 12 13 15 16 15 15 13 12 11 11 12 12 11 11 11 11 9 8 9 10 11 12 12 12 11 10 11 12 11 11 11 12 11 9 9 11 11 9 9 9 8 8 9 9 9 10 12 14 15 15 16 17 16 16 15 14 13
19 19 18 18 18 16 15 15 14 13 12 12 12 12 12 12 11 9 8 8 9 10 9 11 11 11 14 16 16 15 12 11 11 14 16 17 16 13 13 13 13 13 12 12 13 13 11 10 10 9 9 11 12 12 12 11 11 12 12 11 11 11 11 10 9 10 11 11 10 10 10 9 10 11 10 9 10 12 15 16 16 17 18 17 16 16 14 14
20 19 19 19 18 17 17 16 15 14 13 13 12 12 12 11 10 9 8 9 9 9 9 10 11 11 13 14 16 17 14 10 10 12 14 16 17 14 13 14 13 14 14 13 15 15 13 13 12 10 10 12 12 12 12 12 12 12 12 11 10 10 10 9 10 10 10 10 12 13 11 11 12 12 11 10 10 12 14 16 17 18 18 18 17 17 16 15
21 20 19 19 18 17 16 17 17 16 14 14 14 13 11 11 9 9 10 10 9 9 9 9 10 11 11 13 15 17 16 13 11 10 11 13 16 14 13 13 13 14 14 13 15 15 14 13 12 11 11 12 12 11 12 12 11 10 10 10 10 10 10 10 10 10 9 10 13 14 12 11 12 13 13 12 12 13 14 14 16 18 19 19 18 18 17 16
22 21 20 19 18 17 17 17 17 16 14 14 14 13 11 11 10 9 10 10 10 10 8 9 11 10 11 12 13 15 16 15 13 11 11 12 13 14 13 13 13 13 13 14 14 14 13 13 13 12 12 12 11 11 11 10 9 9 9 10 11 11 11 11 11 10 10 12 14 14 12 11 13 14 14 15 15 15 14 14 15 17 18 18 18 18 18 17
22 22 21 20 20 19 19 18 17 16 15 15 14 12 12 12 12 12 11 9 9 10 9 10 10 10 12 13 13 14 15 16 15 13 13 12 13 14 14 14 14 13 13 14 14 13 14 14 13 12 12 12 11 11 11 10 9 9 9 10 11 10 10 11 12 12 12 13 13 13 11 12 14 15 15 16 17 16 14 14 14 15 17 18 18 18 17 16
23 23 22 21 20 20 21 21 19 18 17 15 14 12 12 12 13 14 13 11 10 10 10 11 11 11 12 13 13 14 14 16 16 15 14 13 14 15 15 14 14 13 13 14 14 13 14 14 13 12 12 13 12 12 12 11 10 11 11 11 11 10 10 12 13 12 13 13 13 13 12 13 14 15 14 15 16 16 13 11 11 12 13 15 16 16 16 15
24 23 22 21 21 21 22 21 21 19 17 15 14 13 13 13 13 13 13 12 12 11 11 12 12 12 12 13 14 14 14 16 16 15 14 14 14 15 15 15 14 13 12 12 13 13 13 12 13 13 12 12 13 13 12 11 11 12 12 12 12 12 12 13 14 13 13 13 13 13 12 13 14 14 15 15 15 13 10 9 10 10 11 12 12 13 14 14
24 22 21 21 21 22 23 22 21 20 17 16 14 14 15 15 14 13 12 13 13 13 12 12 12 12 12 13 14 13 13 15 15 15 15 15 15 15 15 16 16 15 13 13 14 13 13 14 14 13 12 11 12 13 12 11 10 12 12 12 13 13 12 12 12 13 13 12 12 13 13 13 13 13 13 13 12 10 9 9 9 9 10 10 11 11 12 13
22 21 20 20 21 22 22 22 21 20 19 16 16 17 18 16 14 13 12 12 12 13 12 12 11 12 12 13 13 13 13 13 14 15 16 16 16 15 15 16 16 16 15 15 14 13 12 14 14 12 11 11 12 13 12 11 11 12 12 13 14 13 11 10 11 11 10 11 13 13 12 12 12 12 11 10 9 9 9 9 9 10 10 10 11 11 11 12
21 20 19 20 21 22 22 21 21 20 19 17 18 19 18 17 16 14 12 11 12 12 11 11 11 11 12 13 13 13 13 14 13 14 15 15 15 15 16 16 16 18 17 14 15 15 13 12 14 12 11 12 12 11 10 10 11 10 12 13 12 11 11 10 10 9 9 11 13 12 12 12 12 12 12 10 9 10 10 9 9 10 11 11 11 11 13 14
19 19 18 18 19 21 22 21 21 20 18 18 20 19 18 17 16 15 14 13 13 13 12 13 13 11 12 13 14 13 14 14 14 14 15 15 14 15 15 16 16 17 18 15 14 15 13 12 13 13 12 12 10 10 10 11 10 10 11 12 10 10 12 11 10 10 10 11 12 11 11 13 13 13 13 13 13 13 12 11 11 11 11 12 12 12 13 14
17 17 17 17 17 19 21 21 21 19 18 19 20 19 19 18 17 16 16 15 15 14 13 14 13 12 12 13 14 13 13 15 14 13 15 15 15 14 14 14 14 14 15 15 15 15 14 13 13 12 12 12 10 10 11 11 10 10 9 10 10 10 11 11 11 11 10 10 11 10 9 11 13 13 13 14 15 14 13 13 13 12 12 12 12 12 12 12
15 15 16 16 15 17 20 20 20 19 19 19 19 19 18 18 17 17 17 17 16 15 15 15 14 14 13 13 14 14 13 14 15 14 14 15 16 15 14 14 13 12 12 14 15 15 14 14 14 12 11 11 11 11 12 12 11 10 9 10 11 10 10 11 10 10 10 9 10 9 9 11 13 12 12 14 14 14 13 13 13 12 12 11 11 10 11 11
14 14 15 14 14 17 18 18 19 19 18 18 18 18 18 18 18 18 18 18 17 17 17 17 16 16 15 14 15 15 14 14 15 16 16 15 15 16 16 15 14 12 11 12 14 15 14 14 15 12 10 11 12 12 12 12 11 10 10 11 11 11 11 10 10 11 10 9 10 10 10 12 12 11 11 12 12 12 13 12 12 12 13 12 11 10 10 11
13 14 15 13 14 18 17 17 19 18 18 18 17 17 17 18 18 18 18 18 18 18 18 18 18 17 16 16 15 16 15 14 14 17 18 16 16 16 16 16 14 13 12 12 14 16 15 14 14 12 11 12 13 11 10 11 11 10 10 11 11 12 11 11 11 12 11 10 10 9 9 12 12 10 10 10 10 11 12 12 12 12 13 13 12 11 11 12
13 15 14 13 15 18 16 17 18 18 18 17 17 17 16 16 17 17 18 17 18 18 17 17 17 16 15 15 14 14 15 14 14 15 17 17 17 17 16 14 14 15 14 13 13 14 14 13 13 12 12 12 12 12 11 10 11 10 10 11 11 11 12 12 12 13 12 11 11 9 10 13 12 10 10 10 9 9 10 11 11 11 12 12 12 12 12 13
14 15 13 12 14 18 16 17 19 18 18 17 16 16 16 16 17 18 18 16 16 17 16 16 16 15 16 15 13 13 14 14 14 14 15 16 16 16 15 13 14 16 16 15 14 14 14 14 14 13 11 11 12 13 12 11 11 11 11 11 11 10 10 11 11 11 11 13 12 11 11 13 13 10 9 8 8 8 9 11 12 12 12 12 12 13 13 13
13 14 13 10 10 14 16 17 18 18 18 17 16 16 16 16 16 17 17 16 16 16 16 16 16 16 16 15 13 13 14 14 15 15 14 15 15 14 15 16 16 15 16 17 15 14 14 14 14 14 14 14 14 15 16 14 12 12 12 12 11 10 10 11 11 11 12 13 12 12 13 14 12 10 9 9 9 9 10 11 12 13 13 14 14 14 15 14
10 13 14 11 8 9 13 15 15 16 16 16 16 15 15 15 14 15 16 16 16 16 15 16 16 15 15 15 14 13 14 14 15 14 14 15 15 14 15 17 17 15 16 16 14 14 14 14 14 15 15 16 16 16 16 16 14 13 13 13 13 12 11 11 11 12 13 12 12 14 15 13 12 12 11 12 11 11 11 12 13 14 14 15 15 15 15 15
8 11 13 13 10 8 9 11 11 13 15 15 15 14 13 13 13 13 14 15 16 16 15 15 14 14 15 16 15 14 14 14 13 14 15 15 16 15 14 14 15 15 16 15 15 15 15 14 15 14 13 14 15 14 13 14 14 14 14 13 14 13 12 11 12 13 13 12 13 15 15 13 13 13 13 14 14 13 13 13 14 14 15 15 15 15 15 15
7 9 11 13 12 9 8 8 9 10 10 11 13 13 12 12 12 13 14 15 14 14 15 15 13 14 15 15 15 14 14 13 12 13 15 15 15 16 14 13 14 14 15 15 15 16 16 16 16 15 13 13 13 13 12 12 13 14 13 14 14 14 13 12 13 14 14 14 15 15 13 13 14 15 14 16 15 14 14 14 15 15 16 16 16 15 16 16
6 6 8 11 12 11 10 9 8 8 8 9 10 11 11 11 11 13 14 14 14 14 14 15 14 14 13 14 15 15 14 13 13 14 15 15 15 15 15 15 15 14 14 15 15 16 15 16 16 15 14 14 14 15 14 13 14 14 13 14 14 14 13 13 14 14 13 13 15 14 13 14 15 16 16 16 16 14 13 13 14 15 16 16 16 16 17 18
6 3 6 8 10 11 11 10 8 7 7 9 10 9 10 10 10 12 12 12 14 14 14 14 15 14 13 13 14 15 16 15 14 15 15 15 15 15 15 15 16 15 14 15 15 15 15 15 15 14 13 13 14 14 14 14 14 14 13 14 14 13 13 14 14 14 13 13 15 14 13 14 16 16 17 16 15 13 13 14 15 15 16 17 17 18 19 19
6 3 3 6 9 9 10 10 10 8 7 7 8 9 10 10 10 11 11 11 12 13 14 15 15 15 14 13 14 16 18 18 18 18 17 16 16 16 16 16 16 15 15 15 16 15 14 15 15 13 13 14 14 13 13 12 12 12 13 14 14 14 14 15 15 16 16 16 17 16 16 18 19 18 17 16 14 14 15 16 16 17 17 17 17 19 20 20
8 4 2 4 7 7 8 9 9 9 8 7 7 8 9 9 10 11 11 10 10 11 13 14 15 15 14 14 15 17 18 19 19 20 19 18 18 18 18 17 16 16 16 16 16 16 15 15 16 15 15 16 16 15 14 13 12 14 15 16 15 15 15 15 15 16 16 17 18 18 19 20 21 20 18 17 16 16 17 18 18 18 18 18 18 19 19 20
Wind_Direction
283 281 279 276 274 271 269 267 266 265 264 263 263 263 262 262 263 263 263 264 264 264 264 265 265 266 266 267 268 269 270 268 266 263 258 256 251 248 244 239 237 235 234 235 236 238 237 236 238 237 235 237 239 240 239 238 239 241 241 242 244 240 237 235 232 230 232 242 246 248 253 245 248 251 241 239 244 243 255 265 264 273 273 260 259 246 238 244
283 281 279 277 274 272 270 267 266 265 264 264 263 263 263 262 262 262 263 263 264 264 264 264 265 265 266 267 268 270 271 267 266 262 256 254 251 246 241 236 236 234 232 232 233 234 234 233 235 234 234 237 239 239 239 239 239 239 241 243 243 238 237 236 234 236 235 241 247 247 247 244 246 251 246 245 251 250 253 264 265 267 264 256 250 240 243 244
283 281 279 278 275 272 270 268 267 266 265 265 264 263 263 262 262 261 262 263 263 263 263 264 264 265 267 267 269 271 270 267 264 258 255 255 250 244 239 235 235 233 232 233 232 232 231 231 232 232 234 237 238 238 240 240 239 240 240 243 244 238 240 241 239 239 239 241 245 248 247 246 249 254 252 243 246 253 249 254 260 255 250 248 245 241 243 244
283 281 279 278 276 273 270 268 267 266 266 265 265 264 263 262 261 261 262 262 262 263 263 264 264 265 266 267 269 269 269 266 259 253 254 254 248 243 237 235 234 232 233 233 231 231 230 230 231 233 234 237 239 239 240 239 239 241 238 240 242 238 241 244 241 241 242 241 243 249 250 249 253 253 251 245 249 259 253 249 252 245 242 243 243 244 245 246
283 281 280 278 276 274 271 269 268 267 266 265 265 265 264 263 262 261 261 261 262 262 263 263 264 265 266 267 268 267 265 261 253 251 254 253 248 242 237 234 232 231 232 231 231 230 230 229 231 233 234 236 239 238 239 240 238 240 240 238 241 239 241 245 243 243 243 243 246 249 248 250 254 255 251 250 253 261 259 255 252 244 240 241 239 241 245 246
282 282 280 278 276 274 272 270 268 267 266 265 265 265 264 263 262 262 261 261 261 262 263 263 264 265 266 267 265 262 259 254 254 254 253 251 247 242 237 233 230 231 230 229 230 229 229 229 230 232 232 234 236 235 238 240 237 239 243 241 242 240 239 246 246 244 243 244 246 245 250 254 258 261 256 254 258 262 262 255 250 246 242 237 236 238 241 242
282 282 281 279 276 275 273 271 269 268 267 266 265 265 263 262 262 262 261 261 261 262 262 262 263 264 265 266 260 258 257 254 256 255 252 250 246 242 237 233 230 229 228 227 228 228 228 227 228 229 230 234 234 233 237 239 236 236 242 243 245 244 242 246 248 247 246 245 247 248 255 258 257 259 259 262 263 260 258 250 245 244 238 233 233 234 236 236
281 281 281 280 277 275 273 271 270 269 268 266 265 264 263 263 261 261 261 261 261 261 262 261 262 262 263 261 257 260 258 254 254 252 250 249 247 241 235 233 230 228 227 225 225 225 225 224 226 228 230 234 232 232 235 238 239 236 239 242 244 247 246 248 250 249 248 246 250 252 253 254 253 254 259 266 265 256 251 245 239 235 230 229 229 229 231 232
282 281 281 280 278 276 273 272 270 269 268 266 265 264 263 263 261 261 260 260 261 261 261 260 260 260 259 256 256 259 255 251 253 250 248 248 248 240 235 234 230 226 224 224 223 222 223 223 225 226 229 234 232 233 235 237 241 237 237 243 246 249 250 251 251 248 246 246 247 247 250 253 249 248 261 263 256 251 244 234 228 223 222 224 225 225 227 228
284 281 281 281 279 277 274 272 271 270 268 266 265 264 263 262 261 260 259 260 260 260 260 258 258 257 255 253 251 252 252 250 251 248 247 249 247 238 234 233 228 224 222 222 220 218 220 221 225 228 231 235 234 234 235 235 240 240 240 246 248 251 252 250 250 248 243 242 241 240 247 252 246 247 259 257 247 241 232 224 220 214 214 217 220 223 226 227
286 283 280 280 280 278 275 273 272 271 269 267 265 263 262 261 260 260 259 259 259 258 258 256 256 254 252 252 245 245 250 250 248 247 247 246 242 236 233 229 225 221 219 219 217 217 219 221 228 232 232 236 236 238 241 237 240 245 247 250 251 252 251 247 248 247 241 241 239 236 246 250 247 251 251 245 238 231 220 214 213 209 212 215 217 221 225 228
289 285 282 280 280 279 277 274 273 271 270 268 265 263 262 261 260 259 258 258 257 256 255 254 253 250 250 251 245 243 248 248 246 247 246 244 240 236 232 226 223 219 215 214 214 217 221 226 231 232 234 237 237 239 242 240 242 246 246 248 253 254 253 246 244 242 237 241 238 236 250 251 251 253 244 233 229 226 216 206 208 211 213 212 214 219 224 229
293 289 284 281 280 280 278 275 272 271 269 267 265 264 262 260 260 259 258 256 255 253 252 250 249 249 249 249 245 243 245 245 246 246 243 245 242 235 229 224 221 217 213 211 214 220 225 231 231 233 239 236 234 236 238 242 243 244 243 242 250 255 254 246 241 240 239 241 237 238 250 250 252 251 234 224 221 218 215 206 207 211 211 211 214 220 225 228
298 293 287 283 281 280 279 275 272 270 268 266 265 264 262 260 259 258 257 255 254 251 248 246 246 246 245 245 246 245 244 242 244 244 239 239 237 229 224 220 217 215 212 213 219 225 229 235 234 238 242 234 233 238 240 244 241 241 243 243 248 249 249 248 244 243 245 245 235 234 246 246 248 244 227 221 216 208 210 209 206 207 210 213 216 219 222 223
302 298 292 286 282 281 279 276 273 269 267 265 264 263 261 259 258 257 256 254 251 247 243 242 242 243 246 248 247 245 243 240 241 239 233 230 226 222 220 215 213 213 212 217 223 228 232 237 235 236 239 235 233 237 239 241 238 239 241 245 248 242 246 252 247 239 240 246 236 229 241 244 242 236 225 219 214 206 206 208 207 207 210 212 215 218 219 225
304 302 297 290 285 283 280 278 274 270 267 265 263 262 261 259 258 256 254 252 248 242 238 239 238 238 243 244 242 241 238 238 240 236 230 227 222 219 218 214 217 216 215 220 224 231 236 236 234 233 234 235 231 230 235 240 240 238 235 239 243 242 248 254 251 242 234 237 237 229 231 237 238 231 222 216 213 209 206 207 207 208 210 210 213 218 222 230
305 303 300 295 289 285 281 278 275 271 267 265 263 261 259 257 255 253 251 248 243 237 234 236 237 238 240 239 241 243 239 238 238 233 227 225 222 219 216 217 221 220 220 224 226 231 234 232 233 235 236 236 230 226 232 238 238 237 235 235 238 241 248 251 253 249 233 225 232 230 225 232 237 228 221 219 214 210 208 208 207 207 209 211 216 222 227 233
306 304 301 298 293 287 283 279 276 272 268 265 262 259 256 253 252 252 248 242 237 234 235 234 232 234 236 235 237 241 245 240 234 228 224 223 220 218 217 218 222 223 223 226 227 228 230 233 234 235 238 238 231 222 223 229 227 230 237 238 242 246 247 250 252 250 238 226 225 225 227 236 238 227 224 225 217 212 212 207 205 207 208 213 219 223 229 234
307 305 302 300 296 291 286 281 277 273 268 264 260 257 254 252 251 250 245 238 233 232 235 230 224 228 232 234 236 242 249 243 231 225 221 219 217 217 217 219 223 225 223 224 227 227 226 233 236 233 233 231 224 215 215 222 220 224 231 230 240 251 253 251 249 251 240 226 223 222 224 231 229 224 224 220 214 213 214 208 206 210 214 218 221 222 225 228
307 305 302 299 297 293 288 282 277 272 267 260 256 256 253 251 250 249 245 242 239 239 240 234 228 234 239 240 239 242 249 243 230 224 221 217 214 214 217 218 220 222 221 216 220 226 222 229 235 228 223 220 218 216 218 222 219 224 231 231 240 250 258 254 250 257 235 217 228 223 216 223 221 220 219 210 207 209 209 209 211 216 219 221 222 223 223 222
305 304 301 299 296 293 290 284 277 271 265 257 254 254 253 253 252 252 252 249 246 244 242 239 233 235 239 239 238 240 245 242 235 228 222 218 215 216 219 215 212 220 221 212 216 226 222 225 228 219 216 215 214 217 224 227 224 227 229 232 243 248 254 252 246 259 231 212 232 222 210 221 219 215 212 204 207 212 209 210 213 216 220 223 223 224 223 223
303 301 299 297 295 292 289 284 277 270 263 258 254 252 255 259 257 257 257 255 251 245 242 241 238 237 238 239 239 239 237 235 239 234 221 217 215 217 218 212 209 216 217 210 217 230 226 223 220 213 211 212 213 214 219 225 227 229 227 230 243 246 251 253 244 250 231 212 227 220 209 220 225 224 222 214 215 220 215 213 213 212 216 221 222 224 224 224
299 299 298 296 293 290 287 282 275 267 261 256 253 252 259 264 265 264 260 257 255 248 242 239 236 235 234 238 237 232 229 228 234 235 221 213 215 216 213 210 211 213 212 209 212 219 219 215 211 205 201 208 218 219 216 226 231 229 227 231 244 246 242 243 244 245 230 216 217 213 211 225 237 239 235 229 227 228 222 217 217 216 216 219 220 222 224 222
294 295 295 294 292 288 285 282 272 261 256 254 252 255 262 267 271 268 260 257 255 250 243 237 234 232 230 234 231 224 229 230 229 231 220 211 213 215 214 212 211 214 216 212 208 210 215 215 212 206 202 208 221 225 220 228 236 234 229 229 239 242 233 231 240 242 231 227 216 207 215 231 240 235 231 233 234 232 226 220 221 222 222 223 223 225 224 223
291 290 290 291 290 287 285 278 264 255 257 255 255 259 264 269 272 266 259 261 257 250 246 239 234 231 226 227 226 222 229 233 228 225 218 211 210 214 219 217 213 218 217 208 206 213 220 224 223 225 224 217 221 228 222 219 230 237 232 230 231 234 234 235 238 232 224 229 224 211 212 229 238 231 226 231 230 227 225 223 222 222 224 227 228 227 225 227
290 287 286 286 286 286 282 270 259 260 261 256 257 262 264 269 272 263 258 264 259 249 243 237 233 229 224 223 223 221 229 237 229 222 217 213 212 213 219 219 217 217 214 209 212 218 226 231 229 235 237 224 222 232 227 215 218 232 232 230 229 228 232 236 230 221 218 221 224 214 206 219 234 232 231 232 228 224 224 226 225 223 226 230 229 228 226 227
289 286 284 281 281 281 273 263 263 264 259 257 260 262 262 265 267 262 259 264 257 246 239 234 231 228 224 222 218 215 228 237 228 222 219 215 215 216 218 219 219 220 217 217 223 224 228 238 238 240 239 225 223 231 226 211 212 231 233 227 227 226 229 231 222 218 220 221 229 226 211 215 227 232 241 239 228 228 229 229 228 225 228 232 232 230 229 227
288 286 283 279 276 273 265 262 264 259 253 258 263 261 261 262 261 257 255 255 250 243 237 232 229 228 226 221 215 215 228 233 225 227 223 215 216 219 222 221 216 222 226 220 225 229 229 236 239 239 235 226 226 227 219 211 222 235 231 224 226 224 224 227 221 223 226 223 232 238 225 224 232 236 248 248 233 235 236 232 231 229 228 231 233 231 228 227
287 285 282 278 274 269 261 259 257 252 252 258 261 260 260 259 257 253 248 247 247 243 236 231 230 230 226 222 220 222 228 229 223 225 221 216 218 221 224 223 217 226 234 226 226 234 234 235 236 235 232 228 228 226 216 214 230 237 229 225 228 225 224 226 222 223 230 226 230 239 233 229 238 241 246 252 245 241 242 239 236 233 229 229 232 231 227 226
285 283 280 277 272 265 259 256 253 251 253 258 259 258 257 255 253 249 244 244 245 242 235 231 232 228 222 223 227 227 227 226 223 221 219 218 220 222 226 226 223 230 239 239 234 236 241 242 239 235 231 226 224 226 222 221 229 234 232 228 226 232 234 233 230 223 228 236 236 238 235 229 239 243 240 245 247 245 246 246 240 235 231 229 229 229 227 226
283 280 277 273 267 262 257 255 251 246 249 257 257 253 250 250 246 238 239 244 246 244 238 234 234 227 221 224 229 227 224 224 224 221 221 222 221 225 228 228 228 232 242 244 238 239 245 244 243 242 234 223 220 226 231 237 237 231 232 223 218 231 235 232 238 231 228 240 239 238 237 231 236 243 242 246 252 252 248 246 242 234 229 226 226 227 228 227
281 278 275 269 262 259 253 250 248 245 250 255 253 245 240 244 244 236 239 249 246 240 236 234 234 230 227 228 229 226 222 223 224 220 219 223 224 224 225 225 225 231 240 239 234 238 241 239 245 248 236 221 219 228 236 247 247 233 228 220 216 229 233 231 237 236 234 238 239 237 237 237 241 245 247 252 257 258 252 249 244 233 223 221 221 224 226 226
281 277 273 266 260 256 251 249 249 249 251 248 244 241 236 237 241 238 240 245 239 236 237 237 239 236 230 228 228 226 224 226 226 222 220 222 224 226 228 227 223 226 233 231 230 233 237 243 246 243 240 228 219 224 233 241 241 231 224 219 218 224 229 233 237 239 239 238 239 241 241 245 250 252 254 257 257 257 254 247 237 228 222 219 220 221 224 225
281 276 270 263 258 254 250 248 246 244 244 239 237 238 232 233 241 240 240 241 238 240 244 243 244 240 231 227 228 226 227 231 226 220 220 220 223 227 229 229 226 226 230 229 228 225 225 238 238 231 236 233 224 225 227 231 236 234 227 220 221 225 226 233 236 235 237 237 239 245 247 246 249 254 259 256 254 253 250 237 227 223 223 221 218 219 223 226
281 274 267 262 257 253 248 243 240 238 236 234 234 233 230 233 240 240 240 241 239 243 249 248 244 241 236 231 229 226 228 232 226 219 221 221 222 225 226 227 226 225 226 229 230 225 221 231 236 234 235 230 231 235 230 229 238 239 230 223 228 230 227 233 235 231 233 236 240 245 247 246 246 255 261 254 248 244 235 227 220 218 220 216 212 216 226 228
280 273 265 259 255 251 244 239 236 233 231 231 233 233 233 234 235 235 238 240 239 243 250 249 240 236 238 233 230 232 231 229 225 222 224 224 225 227 226 226 225 222 223 226 227 225 223 233 239 240 238 230 228 231 230 231 235 235 230 227 231 230 222 227 236 238 236 237 243 245 244 246 246 249 255 251 243 237 229 219 213 209 204 202 206 211 221 226
279 273 264 258 255 249 240 234 231 228 228 230 233 235 235 235 233 232 238 241 239 243 245 243 238 234 234 230 229 236 235 228 227 225 225 226 226 228 229 229 227 223 222 224 226 224 220 231 239 234 233 238 230 221 226 229 225 226 230 228 230 232 229 226 233 245 244 239 247 250 242 239 238 243 249 245 235 234 234 227 221 215 204 203 210 214 219 228
278 271 261 259 258 247 235 229 225 225 228 232 236 238 236 235 234 234 241 245 242 244 241 235 235 234 231 228 228 233 230 225 226 225 225 226 225 225 227 229 229 226 225 224 226 227 219 226 241 233 229 241 236 219 227 237 229 225 228 228 227 231 234 231 231 237 239 239 247 253 246 237 235 241 244 239 231 230 233 235 234 233 229 223 219 217 222 230
276 266 258 264 263 243 227 223 222 225 230 234 236 239 236 236 238 238 243 245 240 239 237 231 232 234 233 229 227 227 224 221 222 222 223 224 223 223 223 226 228 228 228 224 223 226 223 223 234 235 228 233 234 222 225 237 240 234 232 234 234 230 228 228 231 232 230 235 241 246 248 242 237 238 238 238 236 230 229 235 234 234 238 235 228 222 224 227
274 261 256 267 260 232 220 220 222 226 232 235 236 238 237 236 237 237 240 241 236 235 234 229 231 234 235 234 230 228 224 221 222 222 224 225 224 225 226 226 229 231 229 225 223 225 225 220 225 235 234 228 228 225 221 226 234 234 234 237 237 232 227 228 234 235 228 228 234 238 247 247 241 237 237 240 239 231 226 229 231 231 231 232 233 230 225 224
273 258 257 266 249 223 217 221 227 230 233 236 236 237 238 236 234 235 237 237 233 233 233 230 232 234 235 237 236 233 230 227 225 223 226 228 225 226 229 226 226 229 226 224 225 226 225 221 222 231 234 223 223 228 228 229 228 225 228 231 229 226 224 225 236 240 234 230 231 231 240 245 242 236 238 241 238 231 224 223 227 229 224 223 227 226 224 230
269 255 257 264 240 223 222 227 233 234 232 234 236 235 236 235 232 233 235 234 231 230 230 230 231 233 233 236 235 232 230 229 226 222 222 226 225 225 228 224 220 221 219 221 228 227 224 222 221 225 227 223 225 232 235 232 228 227 229 228 227 230 227 225 234 238 236 236 234 231 237 242 241 241 242 242 237 229 222 221 224 224 222 224 226 226 229 238
265 254 257 262 239 225 227 232 234 234 232 235 237 235 235 233 230 229 230 230 229 227 227 227 228 229 231 234 233 231 230 229 227 223 220 224 227 226 228 226 222 223 223 225 231 230 226 223 219 222 229 230 232 237 236 233 230 232 234 232 232 237 234 231 235 235 231 232 233 234 242 243 243 247 247 239 232 224 218 219 219 219 224 228 230 230 231 236
264 252 254 262 240 225 227 230 230 232 234 236 237 236 236 233 228 226 226 229 230 227 226 227 228 230 232 231 230 230 229 227 229 228 223 223 226 227 230 229 223 224 225 225 228 231 230 226 219 217 223 228 232 237 237 237 234 230 235 241 240 239 239 240 241 238 234 234 231 230 241 244 244 249 249 238 230 226 222 220 218 220 225 230 234 235 234 235
266 248 246 256 239 223 226 230 229 231 232 233 235 237 236 234 230 226 223 226 229 227 227 229 230 232 234 231 231 235 234 230 230 231 228 229 229 229 232 228 221 222 224 223 226 230 229 228 224 219 219 223 229 235 233 233 235 234 240 249 247 243 244 242 240 240 240 240 238 235 238 241 246 251 251 245 238 233 230 227 226 227 229 232 236 237 237 237
268 246 240 241 234 223 227 230 231 232 231 230 232 235 234 232 232 227 220 222 227 227 227 231 231 232 235 233 231 237 241 238 235 231 231 235 234 233 234 228 223 225 224 222 228 230 227 230 229 224 223 224 227 232 232 228 230 235 242 250 252 250 248 244 242 242 240 238 243 244 237 233 242 252 253 251 248 242 238 235 233 233 234 235 237 238 240 242
273 247 237 230 227 226 227 232 233 229 227 226 225 229 231 228 226 225 222 222 226 226 226 231 233 232 235 235 230 233 241 242 240 235 234 236 234 234 237 231 227 231 229 228 234 231 227 232 232 228 229 228 226 230 232 229 227 230 236 244 250 252 251 248 246 244 240 239 245 248 240 232 240 250 252 253 253 251 251 251 246 244 244 243 243 243 244 246
287 250 237 226 223 223 221 225 226 219 217 217 216 220 226 225 223 225 226 226 228 228 226 230 237 236 235 235 230 231 237 239 239 238 236 236 234 234 238 235 234 236 231 231 236 231 227 233 235 233 233 232 230 229 228 229 232 232 236 243 248 250 248 245 247 248 245 243 243 241 236 236 243 250 252 253 253 251 254 256 254 253 254 254 253 253 253 254
312 260 241 225 219 222 221 222 222 216 216 217 214 217 222 224 224 226 228 227 230 233 228 227 235 238 236 236 232 231 234 234 235 237 235 235 235 233 233 235 238 240 235 233 235 232 230 234 235 234 233 235 237 235 231 233 237 239 244 247 247 247 245 244 247 249 246 245 242 233 231 240 246 249 251 252 251 249 251 256 258 259 260 259 259 260 261 261
341 284 249 227 219 225 228 226 223 218 225 227 223 226 228 226 227 228 230 229 229 234 233 226 229 234 234 236 233 232 233 230 229 233 232 233 235 232 230 232 236 241 242 238 239 238 234 234 235 234 234 239 244 243 238 235 237 241 249 251 248 246 249 250 250 250 247 245 242 235 234 244 250 252 253 253 252 253 257 262 264 265 265 264 264 265 265 265
359 326 255 226 222 229 230 227 224 220 226 229 227 233 234 233 233 229 228 230 229 231 233 228 228 233 236 237 237 236 236 231 230 233 232 230 232 233 233 235 235 240 243 242 243 244 239 235 236 235 234 239 243 243 239 238 240 246 252 255 253 248 246 247 250 252 247 241 241 240 240 245 251 255 256 256 257 261 263 265 266 267 268 268 268 269 269 268
7 0 301 220 219 228 227 225 226 224 226 231 232 236 237 239 242 231 225 232 237 234 233 230 230 234 239 242 243 243 242 238 236 238 236 233 235 237 238 238 237 237 240 241 243 244 241 237 237 238 237 241 245 244 243 245 248 250 251 252 251 245 241 244 251 256 252 243 241 243 243 246 251 254 254 257 260 262 264 267 268 269 270 269 269 269 269 268